Location: Omaha
(41.2590°N, 95.9380°W)
Time: 12:54:40
(UTC-06:00)

N. Korean satellite - Pass Details

Date: 10 October 2017
Orbit: 461 x 513 km, 97.2° (Epoch: 16 December)

Event Time Altitude Azimuth Distance (km) Brightness Sun altitude
Rises 19:59:09 0° 188° (S) 2,564 10.3 -13.7°
Reaches altitude 10° 20:01:23 10° 199° (SSW) 1,678 9.5 -14.2°
Maximum altitude 20:04:37 31° 263° (W) 879 8.6 -14.8°
Drops below altitude 10° 20:07:50 10° 327° (NNW) 1,663 9.8 -15.4°
Sets 20:10:03 0° 338° (NNW) 2,538 10.6 -15.8°
